Wind_Speed
8 7 6 5 5 4 4 4 4 4 4 4 5 5 6 7 8 8 8 9 9 10 10 11 11 12 12 13 13 14 14 15 15 15 16 16 17 18
8 8 7 7 6 6 6 6 6 6 6 6 7 8 8 9 10 10 11 11 12 13 13 13 14 14 15 16 16 17 17 18 18 19 19 19 20 20
9 8 8 8 7 7 8 8 8 8 8 8 9 10 10 11 11 12 13 14 14 15 15 16 17 17 18 19 19 20 20 21 22 22 22 23 23 24
10 9 9 9 8 8 9 9 10 10 10 10 11 12 13 14 14 15 16 16 17 18 18 19 19 20 21 22 22 23 23 24 25 25 26 27 27 27
12 11 11 10 10 10 10 11 12 12 13 13 14 14 15 16 17 18 18 19 20 21 22 22 23 23 24 25 25 26 26 27 28 28 29 29 30 30
14 14 13 13 13 13 13 14 14 15 15 16 17 17 18 19 19 20 21 22 23 24 24 25 26 26 27 27 28 29 30 31 31 32 32 33 33 34
16 16 16 16 16 16 16 17 17 17 18 18 19 20 21 22 23 24 24 25 26 27 27 28 28 29 29 30 31 32 33 34 34 35 36 36 37 37
19 19 18 18 19 19 19 19 19 20 21 21 22 23 24 25 26 26 26 27 28 29 30 30 31 31 32 33 34 35 35 36 37 38 39 40 41 41
21 21 21 22 21 22 22 22 22 23 23 24 25 26 26 27 28 28 29 29 30 31 31 32 33 33 34 36 37 38 39 40 41 41 42 42 43 43
24 24 24 24 24 24 25 25 25 26 26 26 27 28 29 30 30 31 31 32 32 33 34 33 35 35 36 38 39 40 41 42 43 44 44 44 45 45
25 25 25 26 26 26 27 27 27 28 28 29 30 31 31 32 33 33 34 35 35 36 37 38 37 38 39 40 42 43 44 45 46 46 46 47 47 48
26 26 26 27 28 29 29 29 30 31 31 32 33 33 34 34 35 36 36 37 38 38 39 41 41 42 42 43 44 46 47 48 48 48 48 49 49 49
28 28 29 30 31 31 31 32 32 33 34 34 35 36 36 37 37 38 39 40 41 41 43 44 45 45 46 46 46 48 49 50 50 50 50 51 51 51
29 30 31 32 32 32 32 33 34 35 36 37 37 37 38 38 39 41 42 43 44 45 46 48 48 49 49 49 49 50 51 52 52 52 53 53 53 53
31 32 32 33 33 33 34 35 35 36 37 38 39 40 40 41 42 43 44 46 47 48 49 51 52 53 53 52 52 53 53 54 54 54 54 53 53 54
32 33 33 34 34 35 36 37 38 38 39 40 41 42 43 44 45 46 47 48 49 50 52 53 53 53 53 54 54 55 55 55 54 54 54 53 53 54
33 34 35 35 36 37 38 39 39 40 40 41 43 44 45 46 48 49 50 51 52 51 52 53 54 54 55 55 55 55 54 53 53 53 53 52 52 52
35 35 36 37 37 38 39 40 41 42 43 44 45 47 48 48 49 50 51 52 52 52 53 54 54 55 55 55 54 54 53 52 52 52 52 52 50 50
35 36 36 36 38 39 39 40 41 43 44 46 47 48 48 49 50 50 51 52 53 53 54 54 54 55 55 53 51 52 51 50 50 50 50 50 48 47
35 36 37 38 38 38 40 42 43 44 45 46 47 48 48 49 49 50 51 52 53 54 54 54 55 55 53 52 50 50 51 51 50 49 48 47 46 44
36 37 38 39 40 41 42 43 44 45 47 47 48 48 49 50 51 51 52 53 54 55 55 55 54 54 52 51 49 48 48 48 48 48 46 45 43 41
38 40 41 41 43 43 44 45 46 47 48 49 49 50 50 51 51 52 53 55 55 55 55 54 53 52 50 50 49 48 47 46 46 46 44 42 40 38
38 40 41 42 43 44 45 46 47 48 48 49 50 50 51 52 52 53 55 56 55 54 53 51 50 49 48 48 48 47 46 44 43 41 39 38 37 35
Wind_Direction
225 228 228 231 236 240 242 244 253 264 270 274 281 290 294 296 298 300 302 303 303 302 301 301 300 298 298 298 297 296 296 295 293 292 291 289 287 285
227 231 234 238 244 250 254 257 262 267 270 275 283 291 295 296 298 299 302 302 301 301 301 300 298 297 296 295 295 294 292 292 291 290 288 287 287 285
231 235 239 244 251 256 260 266 270 273 274 276 282 288 292 295 297 299 299 299 300 300 300 299 298 297 296 294 293 292 290 290 289 289 288 287 285 284
233 238 245 250 255 259 266 271 276 276 275 278 282 285 288 291 293 295 297 297 297 299 299 298 297 296 295 294 292 291 290 289 288 288 287 286 285 284
238 243 250 254 258 263 268 271 276 277 277 278 281 284 287 290 292 295 296 296 297 297 298 298 297 295 293 292 291 290 290 289 288 287 286 285 284 283
241 247 253 257 261 266 271 274 276 278 278 280 282 285 288 290 292 294 294 295 295 295 296 296 295 294 293 291 290 290 290 289 289 288 287 285 284 283
245 250 256 261 264 269 273 276 278 279 280 282 284 286 288 290 292 293 293 293 293 294 294 294 293 292 292 292 291 291 291 290 290 289 288 286 285 284
249 254 258 263 267 270 273 276 279 279 280 281 283 286 289 291 293 293 292 292 292 292 292 292 292 291 291 292 291 291 291 290 290 289 288 287 286 285
253 258 261 264 267 270 272 274 277 278 280 282 284 287 289 291 292 292 292 292 293 292 291 291 291 291 292 292 292 291 291 290 290 289 288 287 286 285
256 260 263 266 269 271 272 275 277 280 282 283 285 287 288 290 290 291 291 292 292 291 290 290 291 291 292 292 292 291 291 290 290 289 288 287 286 285
256 261 264 266 270 273 275 276 278 279 281 283 285 286 288 289 289 290 291 290 291 291 291 291 291 291 291 291 291 291 291 291 290 289 288 287 286 285
259 264 266 267 271 274 276 277 278 280 282 284 286 287 288 288 289 289 289 290 290 290 291 291 292 292 292 292 292 292 291 291 290 288 287 287 286 285
262 264 266 269 271 274 276 278 279 280 281 283 286 287 287 287 288 288 289 290 291 291 291 291 292 292 292 292 292 291 291 290 288 288 288 288 287 286
263 265 267 270 271 273 276 278 279 281 282 283 284 285 286 286 287 288 289 290 291 291 292 292 292 293 292 292 292 291 291 290 289 288 288 288 287 286
264 266 269 270 272 273 275 278 279 280 281 282 283 283 284 285 286 287 289 290 291 291 292 292 293 293 293 293 293 292 292 291 290 289 289 288 287 287
267 268 270 271 273 275 276 279 280 281 282 283 283 284 285 286 287 288 288 289 290 291 291 291 292 292 292 293 293 292 292 291 290 290 290 289 289 289
267 269 271 273 275 276 278 280 280 282 283 283 284 286 286 287 288 288 288 289 290 289 289 290 290 291 291 293 293 293 293 292 291 290 290 290 291 291
269 271 272 274 276 277 279 280 282 282 283 284 284 286 287 288 288 289 289 289 289 289 290 291 291 291 292 293 293 293 292 292 292 292 292 292 292 292
274 275 276 277 279 281 282 283 283 283 283 284 286 287 287 288 289 289 289 290 290 291 292 293 293 293 292 292 292 292 292 292 293 293 293 294 294 293
276 277 277 279 282 284 284 284 284 284 284 285 286 286 286 288 288 289 290 292 293 293 293 292 293 293 293 292 291 291 292 293 293 293 293 293 294 294
277 278 280 282 283 284 285 286 285 285 285 286 286 287 287 288 289 290 291 292 292 293 293 293 293 293 292 292 292 292 292 293 294 294 294 294 293 293
281 282 282 283 284 284 285 286 286 286 286 286 287 288 289 289 290 290 291 292 293 294 294 293 293 292 292 292 293 292 293 293 294 295 294 294 294 294
284 285 285 285 285 285 285 286 287 286 286 287 288 288 289 290 290 291 292 293 294 293 293 293 292 292 292 293 294 294 294 294 294 294 294 295 296 297
Height
5879 5880 5880 5881 5881 5881 5882 5882 5882 5881 5881 5880 5879 5879 5878 5877 5876 5875 5874 5873 5871 5870 5869 5867 5866 5864 5863 5862 5860 5858 5857 5855 5854 5852 5850 5849 5847 5846
5877 5878 5878 5879 5879 5879 5879 5879 5879 5879 5878 5878 5877 5876 5876 5875 5874 5873 5871 5870 5868 5867 5865 5864 5862 5861 5859 5858 5856 5854 5853 5851 5849 5848 5846 5844 5842 5841
5875 5875 5876 5876 5876 5877 5877 5877 5876 5876 5876 5875 5874 5874 5873 5872 5870 5869 5868 5866 5865 5863 5862 5860 5858 5856 5855 5853 5851 5849 5848 5846 5844 5842 5841 5839 5837 5835
5872 5873 5873 5873 5874 5874 5874 5873 5873 5872 5872 5872 5871 5870 5869 5868 5867 5865 5864 5862 5860 5858 5857 5855 5853 5851 5849 5847 5845 5843 5841 5840 5838 5836 5834 5832 5830 5828
5869 5870 5870 5870 5870 5870 5870 5870 5869 5869 5868 5868 5867 5866 5865 5864 5862 5861 5859 5857 5855 5853 5851 5849 5847 5845 5843 5841 5839 5837 5835 5833 5831 5828 5826 5824 5822 5820
5866 5866 5867 5867 5867 5867 5866 5866 5865 5864 5864 5863 5862 5861 5860 5859 5857 5855 5854 5851 5849 5847 5845 5843 5841 5838 5836 5834 5832 5829 5827 5824 5822 5820 5818 5815 5813 5811
5862 5862 5863 5863 5863 5862 5862 5861 5860 5860 5859 5858 5856 5855 5854 5853 5851 5849 5847 5845 5842 5840 5838 5836 5833 5831 5828 5826 5823 5821 5818 5816 5813 5810 5808 5805 5803 5801
5857 5858 5858 5858 5858 5857 5857 5856 5855 5854 5853 5852 5851 5849 5847 5846 5844 5842 5840 5838 5835 5833 5830 5828 5825 5823 5820 5817 5814 5811 5809 5806 5803 5800 5797 5794 5792 5789
5852 5852 5853 5853 5852 5852 5851 5850 5849 5848 5847 5846 5844 5842 5840 5838 5836 5834 5832 5830 5827 5824 5822 5820 5816 5814 5811 5808 5805 5802 5799 5795 5792 5789 5786 5783 5780 5777
5846 5847 5847 5847 5846 5845 5845 5844 5843 5842 5840 5839 5837 5835 5833 5830 5828 5826 5824 5821 5819 5815 5812 5811 5808 5805 5802 5798 5795 5791 5788 5784 5780 5777 5773 5770 5767 5764
5840 5840 5840 5840 5839 5838 5838 5837 5835 5834 5832 5831 5829 5826 5824 5822 5819 5817 5814 5812 5809 5806 5802 5800 5797 5794 5791 5788 5783 5779 5775 5771 5768 5764 5760 5756 5753 5749
5833 5833 5833 5832 5831 5831 5830 5829 5828 5826 5824 5822 5820 5818 5815 5812 5809 5807 5804 5802 5799 5797 5792 5788 5785 5782 5779 5776 5771 5766 5762 5758 5753 5749 5745 5741 5738 5734
5826 5825 5825 5824 5823 5823 5822 5820 5819 5817 5815 5813 5811 5808 5805 5802 5799 5796 5793 5791 5788 5785 5781 5777 5773 5769 5765 5763 5759 5753 5748 5743 5739 5734 5730 5726 5722 5718
5818 5817 5817 5816 5815 5814 5813 5811 5809 5807 5805 5803 5801 5798 5795 5792 5789 5786 5783 5779 5776 5772 5768 5764 5760 5756 5751 5748 5744 5739 5734 5728 5724 5719 5715 5710 5706 5701
5810 5809 5808 5807 5806 5804 5803 5801 5799 5797 5795 5793 5790 5788 5785 5782 5778 5775 5771 5767 5764 5759 5755 5750 5746 5741 5736 5732 5728 5723 5719 5713 5708 5703 5699 5694 5690 5685
5801 5800 5798 5797 5796 5795 5793 5791 5789 5786 5784 5781 5779 5776 5773 5770 5766 5763 5759 5755 5751 5747 5741 5736 5731 5726 5722 5717 5712 5707 5702 5697 5692 5687 5682 5678 5673 5667
5791 5790 5788 5787 5786 5784 5782 5780 5778 5775 5772 5769 5766 5763 5760 5757 5753 5749 5745 5741 5737 5733 5728 5722 5716 5711 5706 5702 5697 5692 5686 5681 5676 5671 5666 5662 5657 5651
5780 5779 5778 5776 5775 5773 5771 5768 5765 5763 5760 5757 5753 5750 5747 5743 5739 5735 5731 5727 5722 5717 5712 5707 5701 5696 5691 5686 5681 5675 5671 5666 5661 5655 5650 5646 5643 5637
5770 5769 5767 5766 5764 5762 5759 5756 5753 5750 5746 5743 5740 5736 5732 5728 5724 5720 5716 5711 5706 5702 5696 5691 5685 5680 5676 5672 5667 5659 5655 5651 5646 5642 5636 5631 5627 5623
5760 5759 5757 5755 5752 5749 5747 5743 5740 5737 5733 5730 5726 5722 5718 5713 5709 5705 5701 5696 5691 5686 5681 5675 5670 5664 5659 5656 5653 5648 5640 5635 5631 5627 5622 5617 5613 5609
5749 5747 5745 5742 5740 5737 5734 5730 5727 5724 5720 5716 5712 5708 5703 5699 5695 5690 5686 5681 5676 5671 5666 5660 5654 5649 5644 5640 5637 5633 5628 5621 5616 5612 5608 5604 5600 5596
5737 5735 5732 5729 5727 5724 5721 5718 5714 5710 5706 5702 5698 5693 5689 5684 5680 5675 5670 5665 5660 5655 5650 5645 5639 5634 5629 5625 5621 5617 5614 5609 5603 5598 5594 5590 5586 5583
5726 5723 5720 5717 5714 5711 5708 5704 5700 5696 5692 5687 5683 5679 5674 5670 5665 5660 5655 5650 5645 5639 5634 5630 5625 5620 5615 5610 5606 5603 5599 5596 5591 5588 5584 5579 5575 5571